Date String (YYYY-MM-DD hh:mm:ss) UTC,Instrument flags,Ambient pressure (hPa),Sample flow (lpm),Bypass flow (lpm),Sample temperature (°C),Ambient temperature (°C),ASC tube jacket temperature (°C),LED temperature (°C),Box temperature (°C),Sample RH (%),Span deviation,Mass concentration (μg/m³),Mass concentration (μg/m³),Mass concentration (μg/m³)
DateTimeUTC,F1_M11,P_M11,Q1_M11,Q2_M11,T1_M11,T2_M11,T3_M11,T4_M11,T5_M11,U1_M11,ZSPAN_M11,X0_M11,X2_M11,X1_M11
2022-04-29 06:00:00,,0814.6,5.02,0.00,29.0,28.1,00.0,38.1,30.7,10.1,0001.2,0020.86,0007.84,0005.25
2022-04-29 06:01:00,,0815.0,4.99,0.00,29.0,28.1,00.0,38.1,30.7,10.1,-000.1,0020.62,0007.80,0005.25
2022-04-29 06:02:00,,0814.8,5.01,0.00,28.9,28.0,00.0,38.1,30.6,10.1,-000.3,0019.84,0007.77,0005.26
2022-04-29 06:03:00,,0814.9,4.98,0.00,28.9,28.0,00.0,38.0,30.6,10.2,-000.7,0019.69,0007.69,0005.24
2022-04-29 06:04:00,,0814.8,5.00,0.00,28.9,28.0,00.0,38.0,30.6,10.2,-001.2,0019.16,0007.63,0005.24
2022-04-29 06:05:00,,0814.7,5.00,0.00,28.9,28.0,00.0,38.0,30.6,10.3,-001.4,0018.56,0007.62,0005.24
2022-04-29 06:06:00,,0814.8,4.98,0.00,28.9,28.0,00.0,38.0,30.6,10.3,-001.6,0017.65,0007.61,0005.24
2022-04-29 06:07:00,,0814.7,5.01,0.00,28.9,28.0,00.0,38.0,30.6,10.1,-001.4,0017.51,0007.67,0005.26
2022-04-29 06:08:00,,0814.8,4.98,0.00,28.8,28.0,00.0,38.0,30.5,10.0,-001.0,0017.24,0007.71,0005.26
2022-04-29 06:09:00,,0814.9,5.01,0.00,28.8,27.9,00.0,37.9,30.5,09.9,-000.5,0017.21,0007.75,0005.26
2022-04-29 06:10:00,,0815.0,5.00,0.00,28.8,27.9,00.0,37.9,30.5,10.0,0000.0,0017.58,0007.74,0005.27
2022-04-29 06:11:00,,0815.0,5.00,0.00,28.8,27.8,00.0,37.9,30.5,09.9,-000.1,0017.71,0007.74,0005.28
2022-04-29 06:12:00,,0815.0,4.98,0.00,28.8,27.8,00.0,37.9,30.5,09.9,0000.5,0017.97,0007.80,0005.28
2022-04-29 06:13:00,,0815.1,5.02,0.00,28.7,27.8,00.0,37.9,30.4,10.0,0000.7,0018.29,0007.80,0005.27
2022-04-29 06:14:00,,0814.9,4.98,0.00,28.7,27.7,00.0,37.9,30.4,10.1,0001.3,0018.18,0007.84,0005.27
2022-04-29 06:15:00,,0814.9,5.02,0.00,28.7,27.7,00.0,37.8,30.4,10.1,0002.1,0019.00,0007.90,0005.25
2022-04-29 06:16:00,,0814.7,5.00,0.00,28.7,27.7,00.0,37.8,30.4,10.1,0001.1,0018.88,0007.94,0005.25
2022-04-29 06:17:00,,0814.8,4.99,0.00,28.7,27.7,00.0,37.8,30.4,10.2,0000.0,0019.31,0007.89,0005.25
2022-04-29 06:18:00,,0814.7,5.01,0.00,28.7,27.7,00.0,37.8,30.4,10.3,0000.0,0019.70,0007.77,0005.22
2022-04-29 06:19:00,,0814.9,4.99,0.00,28.7,27.8,00.0,37.8,30.4,10.3,0000.0,0019.78,0007.71,0005.21
2022-04-29 06:20:00,,0814.8,5.00,0.00,28.7,27.9,00.0,37.8,30.4,10.4,0000.2,0019.50,0007.68,0005.21
2022-04-29 06:21:00,,0815.0,5.01,0.00,28.7,28.0,00.0,37.8,30.4,10.6,0000.6,0019.38,0007.76,0005.20
2022-04-29 06:22:00,,0814.8,4.98,0.00,28.7,28.0,00.0,37.8,30.4,10.9,0000.6,0019.52,0007.78,0005.19
2022-04-29 06:23:00,,0815.1,4.99,0.00,28.7,28.1,00.0,37.8,30.5,11.1,0000.5,0019.80,0007.73,0005.20
2022-04-29 06:24:00,,0814.9,5.02,0.00,28.7,28.1,00.0,37.8,30.5,11.1,0001.6,0019.75,0007.70,0005.21
2022-04-29 06:25:00,,0814.7,4.99,0.00,28.7,28.2,00.0,37.8,30.5,11.3,0002.0,0019.68,0007.72,0005.22
2022-04-29 06:26:00,,0814.9,5.00,0.00,28.7,28.2,00.0,37.8,30.5,10.9,0000.3,0019.13,0007.66,0005.25
2022-04-29 06:27:00,,0814.9,5.00,0.00,28.8,28.2,00.0,37.8,30.5,10.5,0000.0,0019.06,0007.66,0005.24
2022-04-29 06:28:00,,0814.9,4.99,0.00,28.8,28.2,00.0,37.8,30.5,10.4,0000.4,0018.98,0007.75,0005.24
2022-04-29 06:29:00,,0814.9,4.99,0.00,28.8,28.2,00.0,37.8,30.5,10.3,0000.8,0019.38,0007.86,0005.25
2022-04-29 06:30:00,,0815.0,5.02,0.00,28.8,28.2,00.0,37.8,30.6,10.2,0001.0,0019.73,0007.89,0005.24
2022-04-29 06:31:00,,0814.9,4.99,0.00,28.8,28.2,00.0,37.8,30.6,10.3,0001.3,0020.14,0007.86,0005.24
2022-04-29 06:32:00,,0815.0,5.00,0.00,28.8,28.2,00.0,37.8,30.6,10.3,0000.0,0020.28,0007.82,0005.24
2022-04-29 06:33:00,,0815.0,5.00,0.00,28.8,28.2,00.0,37.8,30.6,10.3,0003.3,0019.97,0007.71,0005.24
2022-04-29 06:34:00,,0814.7,5.00,0.00,28.8,28.2,00.0,37.8,30.6,10.3,0003.2,0020.47,0007.77,0005.26
2022-04-29 06:35:00,,0814.7,5.00,0.00,28.8,28.2,00.0,37.8,30.6,10.2,0003.1,0020.13,0007.82,0005.24
2022-04-29 06:36:00,,0814.4,5.01,0.00,28.8,28.2,00.0,37.8,30.6,10.2,0003.1,0020.72,0007.88,0005.23
2022-04-29 06:37:00,,0814.4,4.99,0.00,28.8,28.2,00.0,37.8,30.6,10.1,0003.1,0021.08,0007.92,0005.21
2022-04-29 06:38:00,,0814.4,4.99,0.00,28.8,28.2,00.0,37.8,30.6,10.2,0002.6,0021.36,0007.89,0005.21
2022-04-29 06:39:00,,0814.4,5.00,0.00,28.8,28.2,00.0,37.8,30.6,10.1,0002.1,0021.70,0007.87,0005.21
2022-04-29 06:40:00,,0814.4,5.00,0.00,28.8,28.2,00.0,37.8,30.6,10.1,0001.7,0020.86,0007.78,0005.21
2022-04-29 06:41:00,,0814.4,4.99,0.00,28.8,28.2,00.0,37.8,30.6,10.1,0002.0,0020.80,0007.81,0005.21
2022-04-29 06:42:00,,0814.4,5.00,0.00,28.8,28.2,00.0,37.8,30.6,10.1,0002.4,0021.17,0007.85,0005.21
2022-04-29 06:43:00,,0814.4,5.01,0.00,28.8,28.2,00.0,37.8,30.6,10.1,0002.1,0021.31,0007.93,0005.23
2022-04-29 06:44:00,,0814.4,4.98,0.00,28.8,28.2,00.0,37.8,30.6,10.2,0001.9,0021.04,0007.99,0005.23
2022-04-29 06:45:00,,0814.4,5.02,0.00,28.8,28.1,00.0,37.8,30.6,10.3,0002.0,0021.01,0008.01,0005.23
2022-04-29 06:46:00,,0814.4,4.99,0.00,28.8,28.1,00.0,37.8,30.6,10.3,0001.5,0021.57,0008.05,0005.25
2022-04-29 06:47:00,,0814.4,4.99,0.00,28.8,28.1,00.0,37.8,30.5,10.4,0000.9,0021.54,0008.02,0005.27
2022-04-29 06:48:00,,0814.4,5.01,0.00,28.8,28.1,00.0,37.8,30.5,10.4,0000.7,0021.55,0008.03,0005.29
2022-04-29 06:49:00,,0814.4,4.99,0.00,28.8,28.1,00.0,37.8,30.5,10.4,0000.6,0021.63,0008.05,0005.32
2022-04-29 06:50:00,,0814.3,5.01,0.00,28.8,28.2,00.0,37.8,30.5,10.5,0001.0,0021.31,0008.11,0005.32
2022-04-29 06:51:00,,0814.3,4.99,0.00,28.8,28.2,00.0,37.8,30.5,10.5,0001.9,0021.97,0008.16,0005.33
2022-04-29 06:52:00,,0814.2,5.01,0.00,28.8,28.2,00.0,37.8,30.6,10.5,0001.2,0021.62,0008.15,0005.34
2022-04-29 06:53:00,,0814.3,4.99,0.00,28.8,28.3,00.0,37.8,30.6,10.3,0000.9,0020.91,0008.17,0005.36
2022-04-29 06:54:00,,0814.2,5.01,0.00,28.8,28.3,00.0,37.8,30.6,10.3,0000.8,0021.29,0008.16,0005.36
2022-04-29 06:55:00,,0814.2,5.01,0.00,28.8,28.3,00.0,37.8,30.6,10.3,0001.0,0021.89,0008.16,0005.35
2022-04-29 06:56:00,,0814.2,4.98,0.00,28.9,28.4,00.0,37.8,30.7,10.3,0000.8,0022.04,0008.13,0005.35
2022-04-29 06:57:00,,0814.3,5.02,0.00,28.9,28.4,00.0,37.8,30.7,10.3,0000.5,0021.97,0008.10,0005.35
2022-04-29 06:58:00,,0814.1,4.98,0.00,28.9,28.4,00.0,37.8,30.7,10.3,0000.9,0021.73,0008.15,0005.36
2022-04-29 06:59:00,,0814.2,5.02,0.00,28.9,28.4,00.0,37.8,30.7,10.2,0001.5,0021.62,0008.19,0005.37
